Regional Weather Roundup
Issued by NWS

Home | Current Version | Previous Version | Text Only | Print | Product List | Glossary Off
Versions: 1 2 3 4 5 6 7 8 9 10 11 12 13 14 15 16 17 18 19 20 21 22 23 24 25 26 27 28 29 30 31 32 33 34 35 36 37 38 39 40 41 42 43 44 45 46 47 48 49 50

000
ASUS43 KMPX 290810
RWRMN
WEATHER ROUNDUP FOR MINNESOTA
NATIONAL WEATHER SERVICE TWIN CITIES/CHANHASSEN MN
300 AM CDT FRI JUL 29 2016


NOTE: "FAIR" INDICATES FEW OR NO CLOUDS BELOW 12,000 FEET WITH NO
SIGNIFICANT WEATHER AND/OR OBSTRUCTIONS TO VISIBILITY. N/A MEANS
CURRENT SKY AND/OR WEATHER CONDITIONS ARE NOT AVAILABLE.

MNZ060>063-068>070-290900-
   Twin Cities Metro

CITY           SKY/WX    TMP DP  RH WIND       PRES   REMARKS
TWIN CITIES    MOCLDY    65  56  72 N5        30.06S
ST PAUL        MOCLDY    64  56  75 N8        30.06F
CRYSTAL        PTCLDY    61  55  81 N7        30.06S
BLAINE         PTCLDY    61  59  94 N3        30.08R
LAKEVILLE      CLOUDY    63  63 100 CALM      30.05F
EDEN PRAIRIE   MOCLDY    65  57  75 N6        30.05S
LAKEVILLE      CLOUDY    63  63 100 CALM      30.05F
SOUTH ST PAUL  CLOUDY    65  56  74 N5        30.05F
LAKE ELMO      CLOUDY    63  57  82 N5        30.07S
$$
MNZ001>005-007-008-013>017-022>024-027-028-290900-
   Northwest Minnesota

CITY           SKY/WX    TMP DP  RH WIND       PRES   REMARKS
BEMIDJI        CLEAR     54  50  87 NE3       30.11S
HALLOCK        CLEAR     55  54  94 CALM      30.10S
ROSEAU         CLEAR     54  48  82 CALM      30.11S
WARROAD        CLEAR     55  52  88 CALM      30.11S
THIEF RVR FALL CLEAR     56  54  93 CALM      30.11F
CROOKSTON      CLEAR     57  55  94 CALM      30.11S
FOSSTON        FOG       50  46  87 CALM      30.11F VSB 1
DETROIT LAKES  CLEAR     63  59  88 CALM      30.12S
MOORHEAD       CLEAR     61  55  82 NE5       30.10S
PARK RAPIDS    PTCLDY    58  55  90 CALM      30.11S
MAHNOMEN       FAIR      56  56  97 S3        30.11S FOG
$$
MNZ006-009>011-018-025>026-290900-
   North Central Minnesota

CITY           SKY/WX    TMP DP  RH WIND       PRES   REMARKS
BAUDETTE       CLEAR     53  51  93 CALM      30.10S
FLAG ISLAND    CLEAR     66  61  82 CALM      30.09S
INTL FALLS     CLEAR     53  50  89 SE3       30.10S
WASKISH        CLEAR     55  54  94 CALM      30.10S
BIG FORK       CLEAR     52  50  93 CALM      30.12R
LONGVILLE      CLEAR     54  54 100 CALM      30.11S
GRAND RAPIDS   CLOUDY    58  53  84 CALM      30.14S
CRANE LAKE     CLEAR     48  46  93 S1        30.13S
ORR            CLOUDY    54  52  94 CALM      30.10S
COOK           CLEAR     50  48  93 CALM      30.13S
WALKER         FAIR      56  54  94 W3        30.11S
$$
MNZ012-019>021-037-290900-
   Northeast Minnesota

CITY           SKY/WX    TMP DP  RH WIND       PRES   REMARKS
DULUTH         CLEAR     51  49  92 N3        30.12S
ELY            CLEAR     48  46  93 CALM      30.13S
HIBBING        CLEAR     46  46 100 CALM      30.13R
EVELETH        CLEAR     48  47  97 CALM      30.14S
DULUTH HARBOR  CLEAR     61  57  88 N6        30.11S
TWO HARBORS    CLEAR     54  48  82 CALM      30.10S
SILVER BAY     CLEAR     46  46 100 CALM      30.11S
GRAND MARAIS     N/A     58  51  78 CALM      30.10R
G MARAIS ARPRT CLEAR     45  43  93 N3        30.14S
$$
MNZ029>031-032-039>041-046>048-054>057-064-290900-
   West Central Minnesota

CITY           SKY/WX    TMP DP  RH WIND       PRES   REMARKS
FERGUS FALLS   CLEAR     64  59  82 CALM      30.11S
WHEATON        PTCLDY    64  63  94 S5        30.10F
MORRIS         CLEAR     61  61 100 CALM      30.09S
ALEXANDRIA     CLEAR     57  54  89 CALM      30.11F
ELBOW LAKE     FAIR      61  58  92 E3        30.11S
GLENWOOD       CLEAR     59  55  88 E5        30.11S
APPLETON       CLEAR     61  57  88 NE3       30.08F
BENSON         CLEAR     54  52  94 NE3       30.09F
ORTONVILLE     CLOUDY    66  63  88 CALM      30.08F
MADISON        CLEAR     63  61  94 CALM      30.09S
WILLMAR        FAIR      61  57  88 N5        30.10F
$$
MNZ033>034-036-042>043-049>051-058-059-290900-
   Central Minnesota

CITY           SKY/WX    TMP DP  RH WIND       PRES   REMARKS
ST CLOUD       PTCLDY    57  55  93 N5        30.10R
SAUK CENTRE    FAIR      55  55  97 CALM      30.11S
PAYNESVILLE    CLEAR     54  54 100 CALM      30.10F
AITKIN         MOCLDY    55  52  88 CALM      30.10F
PINE RIVER     CLEAR     54  54 100 CALM      30.14S
BRAINERD       CLEAR     57  57 100 CALM      30.11F
STAPLES        CLEAR     55  55 100 CALM      30.11S
LONG PRAIRIE   FAIR      55  54  94 CALM      30.11S
LITTLE FALLS   MOCLDY    55  54  94 CALM      30.11S
LITCHFIELD     CLEAR     61  59  94 N3        30.09F
BUFFALO        CLOUDY    62  56  81 N6        30.09S
MAPLE LAKE     CLEAR     61  58  91 N5        30.09F
HUTCHINSON     CLEAR     62  59  88 N5        30.08F
$$
MNZ037-044-045-052-053-290900-
   East Central Minnesota

CITY           SKY/WX    TMP DP  RH WIND       PRES   REMARKS
PRINCETON      CLEAR     57  55  94 N3        30.10S
MORA           PTCLDY    54  52  94 CALM      30.12R
CAMBRIDGE      CLEAR     59  52  77 CALM      30.07S
RUSH CITY      MOCLDY    54  52  92 N3        30.09S
MOOSE LAKE     FOG       55  54  94 CALM      30.09F VSB 1/4
HINCKLEY       FAIR      54  54 100 N5        30.10F
CLOQUET        CLEAR     48  46  93 NW5       30.12S
MCGREGOR       CLOUDY    59  55  88 CALM      30.12F
$$
MNZ071>073-080-081-089-090-097-098-290900-
   Southwest Minnesota

CITY           SKY/WX    TMP DP  RH WIND       PRES   REMARKS
MONTEVIDEO     CLEAR     57  54  88 CALM      30.10S
GRANITE FALLS  CLEAR     56  55  95 NW3       30.09S
CANBY          CLOUDY    59  56  91 CALM      30.10F
MARSHALL       CLEAR     55  53  93 W3        30.09F
REDWOOD FALLS  CLEAR     61  55  81 CALM      30.07S
OLIVIA         CLEAR     55  54  94 NE3       30.06F
PIPESTONE      CLOUDY    61  55  82 NE3       30.09F
WINDOM         CLEAR     59  55  88 N5        30.07S
WORTHINGTON    CLEAR     57  56  96 NW5       30.08F
JACKSON        CLOUDY    61  57  88 NW3       30.07S
TRACY          CLOUDY    62  58  89 CALM      30.09F
SLAYTON        CLEAR     58  55  92 N6        30.09F
$$
MNZ065>067-074>077-082>085-091>093-290900-
   South Central Minnesota

CITY           SKY/WX    TMP DP  RH WIND       PRES   REMARKS
MANKATO        CLOUDY    64  55  72 N3        30.05S
NEW ULM        PTCLDY    63  57  82 NE6       30.06S
ST JAMES         N/A     55  55 100 CALM      30.06F
FAIRMONT       MOCLDY    61  55  82 N6        30.04S
GLENCOE        PTCLDY    62  60  94 N6        30.06F
FARIBAULT      CLOUDY    64  61  88 N3        30.05F
OWATONNA       CLOUDY    64  59  82 N6        30.04S
WASECA         CLOUDY    63  61  94 N7        30.06S
ALBERT LEA     CLOUDY    64  61  88 N6        30.03S
$$
MNZ078>079-086>088-094>096-290900-
   Southeast Minnesota

CITY           SKY/WX    TMP DP  RH WIND       PRES   REMARKS
ROCHESTER      CLOUDY    63  60  90 N9        30.03F
RED WING       CLOUDY    66  63  88 CALM      30.03S
STANTON        CLOUDY    64  63  94 N5        30.03F
DODGE CENTER   CLOUDY   N/A N/A N/A NE8       30.03F
WINONA         CLOUDY    68  61  77 NE7       30.02S
AUSTIN         CLOUDY    64  57  77 NE3       30.01S
PRESTON        LGT RAIN  61  59  94 N7        30.02S
$$
ABBREVIATIONS USED IN REMARKS
   TC - TEMPERATURES IN CELSIUS
  WCI - WIND CHILL INDEX
   HX - HEAT INDEX
  VSB - VISIBILITY
$$




USA.gov is the U.S. government's official web portal to all federal, state and local government web resources and services.